Powrót do katalogu

STARLINK-1664

AktywnyŁącznośćVLEO
NORAD 46553·PAYLOAD·🇺🇸 United States

Wystrzelony Oct 6, 2020 z Cape Canaveral Space Force Station

Loading…

Następne Przeloty (najbliższe 24 godziny)

TLE

ŚwieżeSource: CelesTrak SupGP

Epoka: Sep 15, 2026, 02:06 UTC

1 46553C 20070X   26258.08798611  .00095000  00000+0  81957-3 0  2589
2 46553  53.0371 300.4806 0007408   9.9943 145.1942 15.68501415    11

Śledź STARLINK-1664 w czasie rzeczywistym z AllMySat

Download on the App Store